GFSFLT2_con_lsi_036.txt.gz
Lid_Strength_Index
7 8 9 11 12 11 15 16 16 14 12 9 8 8 7 7 6 6 6 5 5 4 4 3 3 3 2 2 3 2 2 2
7 8 8 10 9 14 15 17 18 15 14 13 10 10 8 8 7 8 6 5 5 4 4 3 3 2 2 2 3 2 2 2
9 11 11 11 12 13 13 14 16 17 15 10 10 9 9 8 7 8 7 5 5 4 3 3 2 2 2 2 2 2 2 2
11 8 8 10 11 13 15 15 15 15 15 9 9 8 7 7 6 6 5 5 4 4 3 3 4 4 3 2 2 2 2 2
13 12 9 11 10 11 13 13 14 15 15 8 8 8 7 6 6 5 5 5 5 4 4 5 6 6 4 2 2 2 2 2
15 13 11 11 10 10 13 14 14 13 14 11 9 9 8 7 6 6 6 5 5 5 4 6 6 3 3 2 2 2 2 2
11 9 10 10 10 9 11 12 13 12 12 11 10 9 8 7 6 6 7 6 5 5 4 7 6 4 2 2 2 2 2 2
12 9 9 10 9 9 9 9 10 11 12 8 8 7 7 7 7 7 6 6 5 4 6 6 5 4 3 2 2 2 2 2
14 10 10 12 10 9 10 10 10 12 11 8 9 8 8 7 7 7 6 5 5 5 6 6 5 4 4 4 2 2 2 2
14 12 18 10 8 9 11 9 9 9 9 8 8 7 6 5 6 7 6 5 5 4 4 4 5 5 3 3 3 2 2 2
15 15 12 10 8 9 12 12 8 9 9 8 7 7 7 5 4 5 5 4 4 3 3 3 4 2 3 3 3 3 3 3
14 16 17 11 8 7 8 15 8 8 8 8 7 11 9 5 5 5 5 5 5 5 5 4 4 4 4 4 3 3 4 4
14 15 12 8 7 6 13 11 8 7 7 7 9 7 6 5 6 6 6 7 6 6 6 6 5 3 5 4 4 4 5 4
13 15 15 7 8 11 9 7 7 7 6 7 6 6 6 5 7 6 7 7 7 7 7 6 7 6 5 5 5 5 5 5
12 12 10 8 8 7 6 7 7 6 6 6 6 6 6 6 7 7 7 7 7 7 7 6 6 6 7 7 6 6 6 6
10 10 9 7 6 6 6 6 5 5 5 5 6 5 6 6 6 6 6 7 7 7 8 7 6 6 6 7 7 7 7 8
11 9 8 7 6 6 5 5 5 4 4 5 5 6 6 6 5 5 5 6 6 7 6 6 5 5 5 7 8 8 8 8
13 8 9 9 6 5 5 5 5 5 5 4 4 5 5 5 4 4 4 4 5 6 5 5 5 5 5 5 6 8 8 8
8 6 6 6 5 4 5 5 4 4 4 5 4 4 4 5 4 4 3 4 5 5 4 4 4 4 4 5 6 8 7 8

GFSFLT2_con_lsi_042.txt.gz
Lid_Strength_Index
7 9 9 12 14 13 15 17 16 15 12 9 8 8 8 8 7 7 6 5 5 4 4 3 3 3 3 3 3 2 2 2
8 9 9 10 11 14 15 17 18 15 14 13 10 9 9 9 8 7 6 5 5 4 4 3 3 2 2 2 2 2 2 2
10 11 12 12 14 15 15 15 17 17 15 11 9 9 9 8 7 7 6 5 5 4 3 3 2 2 2 3 3 3 2 2
12 10 9 11 13 14 15 16 16 16 14 9 9 8 8 8 7 6 6 5 4 4 3 3 3 3 3 3 2 2 2 2
14 12 11 11 12 14 15 15 15 15 14 9 8 8 7 7 7 7 6 5 4 4 4 4 3 4 3 3 2 1 1 2
15 13 11 12 11 12 13 15 15 14 13 11 10 9 8 7 6 6 7 5 5 5 5 4 4 4 4 4 1 1 1 2
12 12 10 11 10 11 12 13 13 12 13 10 9 9 8 7 6 6 6 6 5 5 5 5 5 5 4 2 1 1 2 2
12 10 10 10 9 10 10 12 10 10 11 9 8 7 7 7 6 7 6 5 5 4 5 5 5 5 2 2 2 1 2 2
14 11 11 13 10 10 11 10 10 12 9 9 9 8 8 7 7 6 6 5 5 5 5 5 4 2 3 2 1 2 2 3
14 13 16 12 9 9 10 10 9 10 9 8 8 7 6 5 6 6 6 5 4 4 4 5 4 2 2 2 2 2 2 3
14 15 13 11 10 10 11 11 9 9 9 7 7 6 7 5 5 5 5 5 4 3 4 5 4 2 2 2 2 2 2 2
14 16 16 11 8 7 7 13 8 8 8 8 7 11 9 5 5 4 4 5 5 4 4 4 3 3 2 3 2 3 2 2
14 14 13 9 8 7 12 11 7 7 7 8 9 8 6 5 5 5 5 5 6 5 6 5 4 3 3 3 5 4 2 3
14 15 15 8 8 10 9 7 6 7 7 7 6 6 5 5 5 6 6 6 6 6 6 6 5 5 6 6 5 3 3 3
12 12 10 8 8 7 6 7 7 6 6 6 6 6 5 5 6 5 5 5 5 5 6 5 5 5 6 6 5 5 5 5
12 10 9 7 6 6 6 6 5 5 5 5 6 5 5 6 6 6 5 6 5 5 5 5 5 6 6 6 7 6 6 6
11 9 8 7 6 6 5 5 5 5 5 5 5 5 6 6 6 5 5 6 5 4 5 5 5 5 5 6 6 7 7 7
12 8 8 8 6 5 6 6 5 5 5 4 4 5 4 5 5 5 5 5 4 4 4 5 5 5 5 5 5 6 7 7
8 7 6 5 5 4 5 5 4 4 4 5 4 4 4 4 4 4 4 5 5 5 4 4 4 5 4 5 5 5 6 7

GFSFLT2_con_lsi_045.txt.gz
Lid_Strength_Index
6 7 6 9 9 8 10 11 11 10 9 7 7 7 7 7 6 6 5 4 4 3 3 3 2 2 2 1 1 1 1 0
7 6 7 7 8 9 9 14 14 11 11 10 8 8 7 7 7 6 5 5 4 3 3 2 2 1 1 1 1 1 0 1
7 8 8 9 9 9 8 10 12 12 10 7 8 7 7 7 6 6 5 5 4 3 3 2 2 2 1 1 1 2 1 1
8 7 7 7 8 8 10 12 11 10 10 6 6 7 6 6 6 5 4 5 4 3 3 3 2 2 2 2 2 1 1 1
9 8 7 8 9 9 8 9 12 11 9 7 7 7 6 6 6 5 4 4 4 4 3 3 3 3 2 2 1 1 1 1
11 9 8 9 9 9 8 10 11 10 9 7 7 7 7 6 5 5 5 5 4 4 3 3 3 2 2 2 1 1 1 1
8 9 8 8 9 9 9 9 9 9 9 7 7 7 7 6 5 5 5 5 4 4 4 3 3 2 2 2 1 1 1 1
9 8 8 9 8 8 8 8 8 8 9 7 7 6 6 6 6 6 5 5 4 4 4 3 3 3 2 2 1 1 1 1
11 9 9 11 9 8 8 7 8 9 8 7 8 7 6 6 6 5 5 4 4 4 3 3 3 2 2 2 1 1 1 1
12 10 14 9 8 7 8 8 7 8 8 7 7 6 6 5 5 5 5 5 4 3 3 2 2 2 1 1 1 1 2 2
12 11 10 9 9 9 9 8 7 8 7 7 6 5 6 5 4 5 4 4 4 3 2 2 2 1 1 1 1 2 2 2
11 12 13 9 7 6 6 10 7 7 7 7 6 9 7 5 4 4 4 4 4 2 2 2 2 1 2 2 2 2 2 2
11 11 10 7 6 5 10 9 5 6 6 6 7 6 5 4 4 4 4 5 4 4 4 3 2 1 2 2 2 1 2 2
11 12 12 7 7 9 8 6 6 6 6 6 6 5 5 5 4 4 4 4 4 5 5 4 2 1 3 4 3 2 2 1
9 9 8 7 7 5 5 6 6 5 5 5 5 6 5 5 4 4 4 3 3 3 4 4 4 4 5 5 3 3 3 3
9 9 8 7 6 5 5 5 5 4 4 4 5 5 5 4 4 4 3 3 3 3 3 3 3 3 4 4 4 4 4 5
9 8 7 6 6 5 5 4 4 4 4 4 4 5 4 4 4 4 3 3 2 3 3 2 2 3 4 4 4 5 6 7
10 7 7 7 5 4 5 5 4 4 4 4 4 4 4 4 3 3 3 2 2 2 2 3 3 3 3 3 3 4 4 5
7 5 6 5 4 4 4 4 4 4 4 4 3 3 3 3 3 3 3 2 2 2 2 2 2 2 3 2 3 3 3 4

GFSFLT2_con_lsi_048.txt.gz
Lid_Strength_Index
5 5 5 7 8 6 9 8 10 8 8 6 5 6 6 5 5 5 4 4 3 3 2 2 2 2 1 1 1 0 0 0
5 5 5 6 5 9 8 12 12 10 9 8 6 6 6 6 6 5 4 4 3 3 2 2 2 1 1 1 1 0 0 0
6 7 7 7 7 7 7 8 11 11 10 5 6 6 6 6 5 5 4 4 3 3 2 2 1 1 1 1 1 1 1 1
7 5 5 6 7 7 9 11 9 10 9 5 5 6 5 6 5 5 4 4 3 3 2 2 2 2 2 2 1 1 1 1
8 7 6 7 6 6 6 8 9 10 9 5 5 6 5 6 5 4 4 4 3 3 3 3 2 2 2 1 1 1 1 1
10 8 7 8 7 7 7 9 9 9 8 6 6 6 6 5 5 4 4 4 4 3 3 2 2 2 2 2 1 1 1 1
7 7 7 7 7 7 8 7 9 8 7 7 7 6 5 5 4 4 4 4 4 4 3 3 3 2 1 1 1 1 1 1
8 7 7 8 7 7 7 7 8 7 7 6 5 5 5 5 5 5 4 4 4 3 3 3 2 2 2 1 1 0 1 1
9 7 7 9 7 7 6 6 6 8 7 6 7 6 5 5 5 5 4 4 4 3 3 2 2 2 2 1 1 1 1 1
9 9 12 7 6 5 6 6 6 6 7 6 6 5 5 4 4 5 5 4 3 3 2 2 1 1 1 1 1 1 1 1
11 10 8 8 7 7 8 7 6 6 7 6 5 5 6 4 4 4 4 3 3 2 2 2 2 1 1 1 1 1 1 1
9 11 12 8 7 5 5 10 6 6 6 6 5 8 7 4 4 4 3 3 3 2 2 2 1 1 1 2 1 1 1 1
9 10 9 7 6 5 10 10 5 5 5 5 6 6 4 3 4 3 3 3 3 2 2 2 1 1 2 1 2 1 1 1
9 10 12 6 6 8 8 5 5 5 5 5 5 4 4 4 4 3 3 3 3 3 3 2 1 1 2 2 1 1 1 1
8 9 7 6 6 5 5 6 5 4 4 4 4 4 4 4 4 3 3 3 2 2 3 3 2 1 2 2 1 1 1 1
8 8 7 6 5 5 5 5 4 3 4 4 4 4 4 4 3 3 3 3 2 2 2 3 2 2 2 2 2 2 2 2
8 7 6 6 5 5 4 4 4 3 3 4 4 4 4 4 3 3 3 2 2 2 2 2 2 1 2 2 2 2 2 3
9 6 6 6 5 4 5 4 4 4 4 3 3 4 3 3 3 2 2 2 2 2 2 2 2 1 1 1 1 1 2 2
6 5 5 4 4 4 4 4 3 3 3 4 3 3 3 3 2 3 2 2 1 2 2 1 1 1 1 1 1 1 2 1